QPF
0.02 0.01 0.00 0.01 0.02 0.02 0.02 0.01 0.02 0.02 0.02 0.02 0.03 0.05 0.05 0.04 0.05 0.05 0.04 0.03 0.03 0.03 0.03 0.02 0.02 0.02 0.02 0.02 0.02 0.02 0.03 0.03 0.03 0.03 0.03 0.03 0.04 0.04 0.03 0.03 0.03 0.03 0.04
0.03 0.02 0.02 0.01 0.02 0.02 0.01 0.01 0.01 0.02 0.02 0.02 0.02 0.03 0.03 0.03 0.04 0.04 0.04 0.04 0.05 0.04 0.03 0.03 0.02 0.02 0.03 0.04 0.04 0.03 0.04 0.04 0.04 0.04 0.04 0.06 0.06 0.06 0.05 0.04 0.03 0.03 0.03
0.03 0.03 0.02 0.02 0.02 0.01 0.02 0.01 0.01 0.01 0.01 0.02 0.02 0.02 0.02 0.02 0.02 0.03 0.04 0.04 0.03 0.04 0.05 0.06 0.05 0.05 0.04 0.05 0.05 0.05 0.04 0.04 0.03 0.03 0.03 0.04 0.05 0.05 0.04 0.04 0.04 0.04 0.04
0.02 0.02 0.02 0.02 0.02 0.02 0.01 0.01 0.01 0.01 0.01 0.02 0.01 0.01 0.02 0.01 0.01 0.02 0.02 0.03 0.03 0.04 0.05 0.06 0.07 0.05 0.04 0.03 0.03 0.02 0.02 0.02 0.01 0.02 0.02 0.02 0.03 0.03 0.04 0.05 0.05 0.04 0.03
0.02 0.02 0.02 0.02 0.01 0.01 0.01 0.01 0.01 0.01 0.01 0.01 0.01 0.01 0.01 0.01 0.01 0.01 0.01 0.02 0.03 0.03 0.03 0.02 0.02 0.02 0.01 0.01 0.01 0.01 0.01 0.01 0.01 0.01 0.01 0.01 0.02 0.02 0.03 0.03 0.03 0.03 0.03
0.01 0.01 0.01 0.00 0.01 0.01 0.01 0.01 0.00 0.00 0.00 0.00 0.00 0.01 0.01 0.01 0.01 0.01 0.02 0.02 0.01 0.01 0.01 0.01 0.01 0.01 0.01 0.01 0.01 0.01 0.02 0.02 0.02 0.01 0.01 0.01 0.01 0.01 0.02 0.04 0.03 0.03 0.03
0.01 0.01 0.01 0.00 0.00 0.01 0.00 0.01 0.01 0.00 0.00 0.00 0.00 0.00 0.00 0.01 0.02 0.02 0.02 0.03 0.02 0.01 0.01 0.01 0.01 0.01 0.01 0.01 0.01 0.02 0.02 0.02 0.02 0.02 0.01 0.01 0.01 0.01 0.02 0.02 0.03 0.03 0.03
0.01 0.02 0.01 0.01 0.01 0.01 0.01 0.01 0.01 0.02 0.01 0.01 0.01 0.00 0.01 0.01 0.02 0.02 0.03 0.03 0.03 0.01 0.01 0.01 0.01 0.01 0.01 0.02 0.01 0.01 0.02 0.02 0.03 0.03 0.02 0.02 0.02 0.02 0.02 0.02 0.03 0.03 0.03
0.02 0.02 0.02 0.02 0.02 0.02 0.01 0.01 0.02 0.02 0.03 0.03 0.02 0.01 0.01 0.02 0.03 0.03 0.04 0.04 0.03 0.01 0.01 0.01 0.02 0.01 0.01 0.02 0.02 0.02 0.02 0.02 0.03 0.03 0.02 0.02 0.03 0.03 0.03 0.03 0.03 0.03 0.03
0.05 0.03 0.02 0.02 0.02 0.03 0.03 0.02 0.03 0.03 0.04 0.04 0.04 0.04 0.03 0.03 0.04 0.06 0.07 0.06 0.03 0.01 0.00 0.01 0.01 0.01 0.01 0.01 0.01 0.01 0.01 0.01 0.02 0.02 0.02 0.02 0.02 0.03 0.03 0.02 0.02 0.02 0.02
0.06 0.05 0.04 0.04 0.05 0.04 0.04 0.04 0.04 0.04 0.04 0.06 0.08 0.09 0.08 0.07 0.07 0.07 0.06 0.04 0.02 0.01 0.00 0.01 0.01 0.02 0.02 0.02 0.02 0.02 0.02 0.02 0.02 0.02 0.01 0.01 0.01 0.02 0.02 0.02 0.02 0.02 0.02
0.06 0.07 0.06 0.04 0.05 0.05 0.05 0.05 0.05 0.04 0.04 0.03 0.03 0.04 0.05 0.05 0.04 0.03 0.03 0.03 0.04 0.02 0.01 0.01 0.02 0.03 0.03 0.03 0.03 0.02 0.03 0.03 0.03 0.02 0.02 0.01 0.01 0.01 0.02 0.02 0.02 0.02 0.02
0.03 0.04 0.06 0.06 0.06 0.07 0.07 0.07 0.05 0.04 0.03 0.02 0.02 0.02 0.02 0.02 0.02 0.03 0.03 0.04 0.04 0.04 0.03 0.03 0.03 0.04 0.03 0.02 0.03 0.04 0.03 0.02 0.02 0.02 0.02 0.01 0.02 0.03 0.03 0.02 0.02 0.02 0.03
0.02 0.03 0.04 0.06 0.06 0.06 0.06 0.06 0.04 0.04 0.02 0.01 0.01 0.01 0.01 0.01 0.02 0.03 0.03 0.05 0.05 0.05 0.05 0.05 0.04 0.04 0.03 0.03 0.03 0.04 0.03 0.03 0.03 0.02 0.02 0.03 0.03 0.04 0.03 0.03 0.03 0.03 0.02
0.02 0.02 0.03 0.03 0.04 0.04 0.04 0.05 0.04 0.04 0.03 0.02 0.01 0.01 0.01 0.01 0.02 0.04 0.04 0.04 0.05 0.05 0.05 0.05 0.05 0.04 0.03 0.03 0.03 0.03 0.03 0.03 0.03 0.03 0.02 0.02 0.02 0.02 0.03 0.03 0.03 0.03 0.02
0.02 0.03 0.03 0.02 0.02 0.02 0.03 0.05 0.05 0.03 0.04 0.03 0.02 0.02 0.01 0.02 0.03 0.04 0.03 0.03 0.05 0.06 0.06 0.06 0.06 0.05 0.04 0.03 0.03 0.03 0.03 0.03 0.03 0.03 0.03 0.03 0.02 0.02 0.02 0.02 0.02 0.02 0.02
0.04 0.04 0.03 0.03 0.04 0.03 0.03 0.05 0.06 0.04 0.04 0.04 0.05 0.04 0.03 0.03 0.03 0.03 0.03 0.03 0.04 0.05 0.06 0.06 0.06 0.06 0.05 0.04 0.03 0.03 0.03 0.03 0.03 0.03 0.02 0.02 0.02 0.02 0.02 0.02 0.02 0.04 0.04
0.05 0.04 0.03 0.03 0.05 0.05 0.06 0.08 0.09 0.07 0.06 0.05 0.05 0.05 0.05 0.05 0.04 0.05 0.05 0.04 0.03 0.03 0.03 0.04 0.04 0.03 0.03 0.04 0.04 0.03 0.02 0.03 0.03 0.03 0.03 0.02 0.02 0.02 0.03 0.03 0.03 0.03 0.03
0.06 0.06 0.05 0.05 0.07 0.08 0.07 0.07 0.07 0.06 0.03 0.03 0.04 0.05 0.05 0.05 0.05 0.05 0.05 0.04 0.03 0.03 0.03 0.03 0.03 0.03 0.04 0.04 0.04 0.05 0.04 0.03 0.03 0.03 0.04 0.04 0.03 0.03 0.03 0.03 0.03 0.02 0.02
0.05 0.07 0.09 0.08 0.10 0.10 0.08 0.06 0.06 0.06 0.03 0.03 0.04 0.05 0.05 0.04 0.04 0.04 0.04 0.04 0.04 0.04 0.04 0.04 0.04 0.04 0.05 0.05 0.05 0.05 0.05 0.04 0.03 0.03 0.03 0.03 0.04 0.04 0.03 0.02 0.02 0.02 0.03
0.03 0.07 0.11 0.10 0.08 0.06 0.05 0.04 0.05 0.07 0.06 0.04 0.05 0.06 0.06 0.05 0.04 0.04 0.04 0.04 0.04 0.04 0.04 0.04 0.05 0.05 0.05 0.05 0.05 0.04 0.04 0.03 0.03 0.03 0.02 0.02 0.03 0.03 0.03 0.03 0.02 0.02 0.02
0.01 0.02 0.03 0.03 0.02 0.02 0.02 0.03 0.03 0.05 0.05 0.04 0.04 0.06 0.06 0.05 0.04 0.04 0.03 0.03 0.03 0.03 0.03 0.03 0.03 0.04 0.04 0.04 0.04 0.04 0.04 0.04 0.04 0.03 0.03 0.03 0.03 0.03 0.04 0.04 0.03 0.03 0.03
0.01 0.01 0.01 0.02 0.02 0.03 0.04 0.04 0.04 0.04 0.04 0.05 0.05 0.05 0.05 0.04 0.04 0.04 0.03 0.03 0.03 0.03 0.02 0.02 0.02 0.02 0.03 0.03 0.04 0.04 0.03 0.04 0.04 0.03 0.03 0.03 0.03 0.03 0.03 0.03 0.04 0.04 0.03
0.01 0.01 0.02 0.02 0.03 0.05 0.08 0.07 0.07 0.05 0.04 0.05 0.05 0.05 0.04 0.04 0.03 0.04 0.04 0.04 0.03 0.03 0.02 0.02 0.02 0.02 0.03 0.04 0.05 0.04 0.04 0.04 0.03 0.03 0.03 0.03 0.03 0.03 0.03 0.04 0.04 0.03 0.04
0.02 0.02 0.02 0.03 0.05 0.08 0.09 0.08 0.08 0.06 0.06 0.07 0.06 0.05 0.05 0.04 0.03 0.03 0.04 0.04 0.03 0.03 0.03 0.02 0.02 0.02 0.03 0.04 0.05 0.04 0.04 0.04 0.03 0.03 0.02 0.03 0.03 0.04 0.05 0.05 0.06 0.06 0.06
0.02 0.02 0.02 0.03 0.03 0.05 0.07 0.07 0.07 0.07 0.07 0.07 0.06 0.05 0.05 0.05 0.05 0.05 0.04 0.03 0.03 0.03 0.03 0.03 0.02 0.03 0.03 0.04 0.04 0.04 0.04 0.04 0.04 0.04 0.03 0.03 0.03 0.04 0.05 0.06 0.06 0.07 0.06
MSLP
1016.01 1016.46 1016.92 1017.34 1017.71 1017.99 1018.19 1018.32 1018.39 1018.44 1018.49 1018.54 1018.59 1018.64 1018.66 1018.64 1018.57 1018.44 1018.27 1018.05 1017.82 1017.59 1017.37 1017.18 1017.00 1016.84 1016.68 1016.49 1016.27 1016.00 1015.68 1015.30 1014.88 1014.42 1013.94 1013.45 1012.96 1012.48 1012.03 1011.61 1011.23 1010.89 1010.60
1015.98 1016.42 1016.86 1017.27 1017.61 1017.88 1018.06 1018.17 1018.23 1018.26 1018.28 1018.30 1018.32 1018.33 1018.32 1018.28 1018.19 1018.05 1017.87 1017.65 1017.41 1017.18 1016.96 1016.76 1016.59 1016.43 1016.28 1016.12 1015.93 1015.71 1015.43 1015.12 1014.76 1014.36 1013.93 1013.47 1013.01 1012.54 1012.07 1011.62 1011.19 1010.79 1010.43
1015.85 1016.30 1016.74 1017.14 1017.47 1017.73 1017.89 1017.99 1018.03 1018.04 1018.03 1018.02 1018.01 1018.00 1017.96 1017.90 1017.81 1017.67 1017.50 1017.31 1017.11 1016.91 1016.72 1016.55 1016.41 1016.28 1016.14 1016.00 1015.84 1015.63 1015.39 1015.11 1014.79 1014.42 1014.03 1013.61 1013.17 1012.71 1012.25 1011.78 1011.31 1010.86 1010.43
1015.61 1016.08 1016.53 1016.93 1017.26 1017.51 1017.66 1017.75 1017.78 1017.77 1017.75 1017.72 1017.68 1017.65 1017.60 1017.54 1017.45 1017.34 1017.20 1017.06 1016.91 1016.77 1016.65 1016.54 1016.44 1016.34 1016.23 1016.10 1015.94 1015.75 1015.51 1015.23 1014.92 1014.57 1014.20 1013.80 1013.38 1012.95 1012.49 1012.02 1011.54 1011.06 1010.57
1015.23 1015.74 1016.21 1016.62 1016.95 1017.20 1017.36 1017.44 1017.47 1017.47 1017.43 1017.39 1017.35 1017.30 1017.25 1017.19 1017.12 1017.04 1016.96 1016.88 1016.80 1016.74 1016.69 1016.65 1016.61 1016.55 1016.46 1016.34 1016.17 1015.96 1015.70 1015.40 1015.07 1014.72 1014.35 1013.97 1013.58 1013.17 1012.74 1012.28 1011.80 1011.30 1010.79
1014.71 1015.25 1015.75 1016.18 1016.52 1016.78 1016.96 1017.06 1017.11 1017.11 1017.10 1017.06 1017.02 1016.98 1016.93 1016.88 1016.84 1016.80 1016.76 1016.75 1016.75 1016.77 1016.80 1016.83 1016.84 1016.82 1016.75 1016.62 1016.43 1016.18 1015.89 1015.55 1015.19 1014.81 1014.43 1014.06 1013.69 1013.30 1012.91 1012.49 1012.03 1011.55 1011.03
1014.06 1014.64 1015.16 1015.61 1015.98 1016.26 1016.47 1016.61 1016.69 1016.73 1016.74 1016.74 1016.72 1016.69 1016.66 1016.63 1016.61 1016.60 1016.62 1016.66 1016.73 1016.82 1016.92 1017.00 1017.06 1017.06 1017.00 1016.86 1016.65 1016.36 1016.01 1015.63 1015.22 1014.82 1014.42 1014.05 1013.69 1013.34 1012.98 1012.60 1012.19 1011.73 1011.23
1013.29 1013.91 1014.47 1014.94 1015.34 1015.66 1015.91 1016.10 1016.23 1016.33 1016.40 1016.43 1016.45 1016.45 1016.45 1016.44 1016.45 1016.47 1016.53 1016.62 1016.73 1016.87 1017.02 1017.14 1017.23 1017.25 1017.19 1017.03 1016.78 1016.45 1016.06 1015.63 1015.19 1014.75 1014.34 1013.96 1013.62 1013.29 1012.97 1012.64 1012.27 1011.85 1011.39
1012.47 1013.12 1013.70 1014.20 1014.64 1015.00 1015.30 1015.55 1015.76 1015.93 1016.06 1016.16 1016.23 1016.28 1016.31 1016.33 1016.36 1016.41 1016.49 1016.61 1016.76 1016.93 1017.10 1017.24 1017.34 1017.37 1017.30 1017.13 1016.86 1016.50 1016.07 1015.60 1015.13 1014.67 1014.25 1013.87 1013.53 1013.23 1012.93 1012.64 1012.31 1011.94 1011.51
1011.61 1012.29 1012.89 1013.43 1013.90 1014.31 1014.68 1015.00 1015.28 1015.53 1015.74 1015.92 1016.05 1016.15 1016.22 1016.29 1016.35 1016.42 1016.52 1016.66 1016.82 1017.00 1017.17 1017.33 1017.42 1017.45 1017.37 1017.19 1016.90 1016.52 1016.08 1015.60 1015.11 1014.64 1014.21 1013.83 1013.50 1013.21 1012.94 1012.66 1012.37 1012.03 1011.64
1010.76 1011.45 1012.08 1012.64 1013.15 1013.62 1014.05 1014.44 1014.81 1015.14 1015.44 1015.69 1015.89 1016.06 1016.18 1016.29 1016.39 1016.49 1016.61 1016.75 1016.92 1017.09 1017.27 1017.41 1017.50 1017.51 1017.43 1017.24 1016.95 1016.57 1016.14 1015.66 1015.18 1014.72 1014.29 1013.91 1013.59 1013.30 1013.03 1012.77 1012.49 1012.17 1011.81
1009.90 1010.61 1011.26 1011.85 1012.41 1012.93 1013.42 1013.89 1014.34 1014.75 1015.13 1015.46 1015.74 1015.97 1016.16 1016.31 1016.45 1016.59 1016.73 1016.88 1017.05 1017.22 1017.38 1017.51 1017.58 1017.58 1017.49 1017.30 1017.03 1016.67 1016.26 1015.81 1015.35 1014.91 1014.50 1014.13 1013.81 1013.51 1013.24 1012.97 1012.68 1012.37 1012.01
1009.05 1009.77 1010.44 1011.07 1011.66 1012.24 1012.79 1013.33 1013.85 1014.34 1014.79 1015.20 1015.55 1015.85 1016.10 1016.32 1016.51 1016.68 1016.85 1017.02 1017.19 1017.35 1017.50 1017.61 1017.66 1017.65 1017.56 1017.39 1017.13 1016.81 1016.43 1016.02 1015.61 1015.20 1014.82 1014.46 1014.14 1013.83 1013.54 1013.25 1012.94 1012.61 1012.24
1008.16 1008.91 1009.61 1010.28 1010.93 1011.56 1012.17 1012.78 1013.36 1013.91 1014.43 1014.90 1015.31 1015.68 1015.99 1016.27 1016.51 1016.73 1016.93 1017.12 1017.30 1017.46 1017.60 1017.69 1017.73 1017.71 1017.62 1017.46 1017.23 1016.94 1016.61 1016.26 1015.89 1015.53 1015.18 1014.84 1014.51 1014.20 1013.88 1013.56 1013.22 1012.85 1012.45
1007.26 1008.04 1008.78 1009.51 1010.21 1010.90 1011.57 1012.23 1012.87 1013.47 1014.04 1014.56 1015.03 1015.45 1015.82 1016.15 1016.45 1016.71 1016.95 1017.17 1017.36 1017.52 1017.64 1017.73 1017.76 1017.73 1017.64 1017.49 1017.29 1017.05 1016.77 1016.47 1016.15 1015.83 1015.51 1015.19 1014.86 1014.53 1014.19 1013.83 1013.44 1013.04 1012.60
1006.34 1007.17 1007.98 1008.77 1009.54 1010.29 1011.03 1011.73 1012.41 1013.05 1013.65 1014.20 1014.70 1015.16 1015.58 1015.96 1016.30 1016.61 1016.88 1017.13 1017.33 1017.50 1017.62 1017.69 1017.72 1017.68 1017.60 1017.46 1017.29 1017.08 1016.85 1016.60 1016.33 1016.05 1015.76 1015.45 1015.13 1014.78 1014.41 1014.00 1013.58 1013.12 1012.64
1005.47 1006.37 1007.25 1008.12 1008.96 1009.78 1010.57 1011.32 1012.02 1012.68 1013.29 1013.86 1014.37 1014.85 1015.29 1015.70 1016.08 1016.42 1016.73 1016.99 1017.22 1017.40 1017.52 1017.59 1017.60 1017.57 1017.49 1017.37 1017.22 1017.05 1016.85 1016.64 1016.41 1016.16 1015.89 1015.60 1015.27 1014.90 1014.50 1014.06 1013.59 1013.08 1012.56
1004.71 1005.68 1006.65 1007.60 1008.52 1009.40 1010.24 1011.02 1011.74 1012.40 1013.00 1013.55 1014.07 1014.54 1014.99 1015.41 1015.80 1016.16 1016.49 1016.78 1017.02 1017.21 1017.34 1017.41 1017.43 1017.40 1017.33 1017.23 1017.10 1016.95 1016.78 1016.60 1016.40 1016.18 1015.92 1015.63 1015.29 1014.90 1014.47 1014.00 1013.48 1012.94 1012.36
1004.13 1005.18 1006.23 1007.26 1008.25 1009.18 1010.05 1010.84 1011.56 1012.20 1012.78 1013.31 1013.79 1014.24 1014.68 1015.09 1015.49 1015.86 1016.20 1016.50 1016.76 1016.96 1017.10 1017.18 1017.21 1017.19 1017.13 1017.04 1016.93 1016.81 1016.66 1016.51 1016.32 1016.11 1015.86 1015.56 1015.21 1014.81 1014.35 1013.85 1013.30 1012.71 1012.09
1003.80 1004.91 1006.03 1007.11 1008.15 1009.12 1010.00 1010.78 1011.48 1012.09 1012.62 1013.10 1013.54 1013.95 1014.36 1014.75 1015.14 1015.51 1015.85 1016.17 1016.43 1016.65 1016.80 1016.90 1016.95 1016.95 1016.91 1016.85 1016.76 1016.65 1016.53 1016.38 1016.21 1016.00 1015.75 1015.44 1015.08 1014.65 1014.17 1013.64 1013.05 1012.43 1011.78
1003.72 1004.87 1006.03 1007.14 1008.20 1009.17 1010.03 1010.79 1011.44 1011.99 1012.47 1012.89 1013.28 1013.65 1014.02 1014.38 1014.75 1015.12 1015.46 1015.79 1016.07 1016.30 1016.47 1016.60 1016.67 1016.70 1016.68 1016.64 1016.57 1016.48 1016.38 1016.24 1016.07 1015.86 1015.60 1015.28 1014.90 1014.46 1013.95 1013.39 1012.78 1012.12 1011.43
1003.87 1005.03 1006.18 1007.29 1008.33 1009.26 1010.08 1010.78 1011.37 1011.86 1012.27 1012.64 1012.97 1013.30 1013.63 1013.98 1014.33 1014.69 1015.04 1015.37 1015.66 1015.91 1016.11 1016.26 1016.37 1016.42 1016.44 1016.42 1016.38 1016.31 1016.21 1016.08 1015.91 1015.69 1015.42 1015.09 1014.69 1014.22 1013.69 1013.11 1012.46 1011.78 1011.05
1004.19 1005.32 1006.42 1007.48 1008.45 1009.31 1010.05 1010.67 1011.19 1011.61 1011.97 1012.28 1012.58 1012.87 1013.18 1013.52 1013.87 1014.23 1014.58 1014.93 1015.24 1015.51 1015.74 1015.92 1016.04 1016.13 1016.17 1016.18 1016.16 1016.10 1016.01 1015.88 1015.71 1015.48 1015.19 1014.84 1014.42 1013.93 1013.38 1012.76 1012.09 1011.37 1010.59
1004.59 1005.64 1006.66 1007.61 1008.48 1009.24 1009.88 1010.42 1010.85 1011.21 1011.52 1011.80 1012.08 1012.37 1012.68 1013.02 1013.38 1013.76 1014.13 1014.49 1014.83 1015.12 1015.37 1015.57 1015.72 1015.83 1015.89 1015.92 1015.91 1015.86 1015.77 1015.63 1015.44 1015.20 1014.89 1014.51 1014.07 1013.55 1012.97 1012.32 1011.61 1010.84 1010.02
1004.97 1005.91 1006.81 1007.64 1008.38 1009.01 1009.55 1009.99 1010.36 1010.67 1010.95 1011.22 1011.51 1011.82 1012.16 1012.53 1012.92 1013.33 1013.73 1014.11 1014.46 1014.77 1015.04 1015.25 1015.41 1015.53 1015.60 1015.63 1015.62 1015.56 1015.46 1015.31 1015.10 1014.83 1014.50 1014.09 1013.61 1013.06 1012.44 1011.75 1010.99 1010.17 1009.28
1005.29 1006.09 1006.85 1007.53 1008.13 1008.64 1009.06 1009.43 1009.74 1010.02 1010.30 1010.59 1010.91 1011.27 1011.66 1012.09 1012.53 1012.97 1013.41 1013.82 1014.19 1014.51 1014.77 1014.99 1015.15 1015.26 1015.32 1015.34 1015.31 1015.23 1015.11 1014.93 1014.69 1014.38 1014.01 1013.56 1013.04 1012.44 1011.78 1011.03 1010.22 1009.33 1008.37
Thickness
5776 5774 5772 5770 5769 5767 5765 5764 5762 5760 5759 5757 5755 5754 5752 5750 5748 5746 5743 5740 5737 5735 5733 5731 5729 5727 5724 5721 5718 5714 5711 5708 5703 5701 5699 5697 5695 5693 5691 5689 5687 5684 5681
5776 5774 5771 5769 5767 5766 5764 5763 5761 5759 5758 5756 5754 5752 5751 5749 5747 5744 5742 5740 5737 5734 5732 5729 5727 5726 5723 5720 5716 5713 5710 5707 5703 5698 5696 5693 5691 5690 5688 5685 5683 5681 5678
5775 5773 5770 5768 5766 5764 5763 5762 5760 5758 5756 5755 5753 5751 5749 5747 5745 5743 5741 5738 5736 5733 5731 5728 5726 5724 5721 5718 5714 5711 5708 5706 5702 5698 5694 5690 5688 5686 5683 5681 5679 5676 5674
5773 5771 5768 5766 5765 5763 5762 5760 5758 5756 5754 5752 5751 5749 5747 5745 5743 5741 5738 5736 5734 5732 5730 5728 5725 5723 5720 5716 5713 5709 5706 5703 5699 5695 5691 5687 5685 5682 5679 5676 5673 5671 5669
5770 5768 5766 5765 5763 5760 5758 5757 5756 5754 5752 5750 5748 5746 5744 5742 5741 5738 5736 5734 5731 5729 5727 5725 5724 5721 5719 5715 5712 5708 5704 5700 5695 5692 5688 5685 5682 5679 5676 5673 5670 5667 5664
5767 5765 5763 5762 5760 5757 5755 5753 5751 5750 5748 5746 5744 5742 5740 5740 5739 5736 5734 5732 5729 5727 5724 5722 5720 5718 5716 5713 5710 5707 5703 5698 5694 5690 5686 5683 5681 5678 5675 5671 5667 5663 5660
5764 5761 5759 5757 5755 5753 5751 5749 5747 5746 5744 5742 5741 5739 5738 5737 5735 5733 5731 5728 5726 5724 5722 5719 5717 5715 5712 5710 5707 5703 5700 5697 5694 5691 5686 5684 5681 5678 5673 5669 5665 5662 5659
5759 5757 5755 5753 5750 5748 5746 5744 5743 5742 5740 5738 5737 5736 5734 5733 5732 5730 5727 5724 5721 5719 5717 5715 5713 5711 5708 5705 5702 5699 5696 5694 5691 5688 5686 5684 5681 5677 5673 5669 5664 5658 5654
5753 5751 5750 5747 5745 5743 5741 5740 5738 5737 5735 5733 5732 5730 5729 5729 5727 5725 5722 5719 5716 5715 5713 5711 5708 5706 5704 5700 5697 5694 5692 5690 5688 5685 5683 5680 5677 5673 5669 5664 5658 5654 5651
5748 5746 5744 5742 5740 5738 5736 5735 5733 5731 5730 5729 5728 5726 5725 5725 5724 5722 5717 5714 5711 5710 5708 5706 5704 5702 5699 5696 5693 5690 5687 5685 5682 5680 5676 5674 5671 5668 5665 5661 5657 5652 5648
5744 5742 5738 5736 5735 5733 5731 5729 5728 5726 5724 5723 5721 5721 5720 5720 5719 5716 5713 5710 5707 5704 5702 5701 5699 5696 5694 5691 5689 5687 5685 5681 5678 5675 5672 5669 5666 5663 5660 5656 5653 5649 5645
5738 5735 5732 5729 5728 5728 5725 5723 5721 5719 5717 5715 5714 5714 5714 5714 5712 5710 5707 5704 5702 5699 5698 5696 5694 5691 5689 5686 5683 5682 5679 5675 5672 5669 5666 5664 5661 5658 5655 5651 5648 5645 5642
5731 5729 5726 5724 5721 5720 5718 5715 5713 5712 5710 5709 5707 5707 5707 5707 5705 5703 5701 5698 5695 5693 5692 5690 5688 5686 5683 5680 5678 5676 5672 5669 5667 5664 5662 5659 5656 5653 5649 5646 5643 5640 5637
5724 5721 5719 5715 5714 5713 5712 5710 5707 5705 5704 5703 5701 5700 5699 5698 5698 5696 5694 5691 5688 5686 5684 5683 5681 5679 5677 5675 5672 5669 5667 5665 5662 5660 5657 5654 5650 5646 5643 5641 5637 5633 5630
5714 5713 5711 5709 5708 5707 5705 5703 5702 5702 5700 5698 5696 5695 5693 5692 5692 5689 5686 5684 5683 5681 5678 5675 5673 5671 5669 5667 5666 5664 5661 5659 5656 5654 5651 5648 5644 5641 5638 5635 5631 5628 5625
5705 5704 5703 5702 5700 5699 5697 5696 5696 5695 5694 5692 5691 5690 5689 5687 5685 5682 5680 5678 5675 5672 5670 5669 5668 5666 5664 5662 5659 5657 5655 5654 5652 5649 5646 5642 5639 5636 5632 5629 5626 5623 5620
5699 5697 5695 5694 5692 5691 5689 5687 5686 5687 5686 5685 5683 5682 5681 5679 5677 5674 5672 5669 5667 5664 5664 5664 5663 5661 5659 5657 5655 5653 5651 5649 5646 5643 5640 5637 5634 5630 5627 5624 5620 5617 5615
5692 5690 5688 5686 5685 5683 5681 5680 5678 5677 5676 5677 5676 5673 5672 5670 5667 5665 5662 5660 5659 5657 5659 5658 5657 5655 5653 5652 5650 5648 5645 5642 5639 5636 5634 5631 5627 5625 5622 5619 5616 5613 5610
5684 5682 5681 5679 5677 5675 5673 5672 5671 5670 5669 5669 5668 5666 5664 5660 5658 5656 5654 5654 5655 5654 5653 5652 5651 5649 5647 5645 5644 5641 5639 5636 5634 5631 5628 5625 5622 5619 5616 5614 5611 5607 5604
5677 5675 5673 5671 5669 5667 5666 5664 5663 5662 5661 5660 5660 5659 5656 5652 5651 5649 5648 5648 5648 5648 5647 5646 5645 5644 5642 5640 5637 5635 5633 5630 5627 5625 5622 5619 5616 5613 5611 5608 5606 5602 5600
5667 5666 5665 5663 5660 5659 5658 5656 5655 5654 5653 5653 5653 5652 5649 5647 5646 5645 5643 5642 5642 5642 5641 5640 5639 5638 5636 5634 5632 5629 5627 5625 5622 5619 5616 5613 5610 5608 5606 5603 5601 5598 5596
5658 5657 5655 5653 5652 5650 5649 5649 5648 5647 5646 5646 5646 5644 5640 5640 5639 5639 5638 5638 5638 5637 5636 5635 5634 5633 5631 5629 5626 5624 5622 5619 5617 5614 5611 5608 5605 5602 5600 5598 5596 5593 5591
5649 5648 5646 5645 5644 5642 5641 5641 5641 5640 5639 5638 5637 5636 5634 5633 5633 5633 5633 5633 5632 5631 5630 5629 5628 5627 5625 5623 5621 5618 5616 5615 5612 5609 5606 5603 5600 5597 5595 5593 5591 5588 5587
5642 5640 5638 5637 5636 5635 5634 5633 5633 5632 5632 5631 5630 5629 5628 5627 5627 5626 5626 5625 5624 5623 5623 5622 5621 5620 5619 5617 5614 5612 5610 5608 5605 5603 5600 5597 5595 5592 5590 5588 5586 5584 5581
5633 5632 5631 5629 5628 5627 5626 5625 5625 5624 5623 5623 5622 5622 5621 5620 5619 5619 5618 5617 5616 5615 5615 5614 5613 5612 5611 5609 5607 5606 5604 5601 5598 5595 5593 5590 5589 5587 5585 5584 5582 5579 5577
5624 5624 5623 5622 5620 5619 5618 5618 5617 5616 5616 5615 5615 5614 5613 5612 5611 5610 5609 5608 5607 5606 5605 5605 5604 5603 5602 5601 5599 5597 5595 5593 5590 5588 5586 5584 5583 5581 5580 5578 5577 5574 5572